RH
33 23 19 18 18 16 20 19 16 17 15 15 16 15 13 14 15 18 28 34 45 48 55 69 88 88 89 90 89 88 86 81 80 79 76 76 76 76 80 80 80 76 72 74 74 71 70 68 65
21 20 17 17 15 14 16 16 17 16 15 15 16 14 13 16 16 22 28 37 46 48 54 60 92 89 89 90 90 88 85 80 77 75 75 75 76 81 82 80 81 79 75 76 76 72 68 63 60
22 16 16 17 17 13 16 16 14 16 16 15 14 15 14 16 20 24 38 39 50 50 54 61 93 90 91 92 91 88 86 83 78 77 77 78 76 79 84 82 81 78 74 71 75 74 69 62 58
19 15 15 12 16 16 13 13 14 16 15 15 14 13 13 20 24 32 42 47 48 52 55 77 93 92 91 92 90 86 84 82 80 78 78 80 80 79 83 82 80 77 70 73 71 75 69 59 57
15 16 16 18 18 15 14 15 15 15 13 12 14 12 15 19 29 36 41 46 46 54 59 65 94 94 91 90 83 88 86 83 82 80 79 82 82 84 84 81 78 72 69 68 70 72 68 56 59
16 16 15 16 16 16 15 15 13 11 11 13 11 11 16 21 24 38 41 44 51 58 67 65 90 98 93 91 88 86 87 89 87 85 82 83 84 83 82 78 72 71 67 68 71 72 66 54 58
18 18 19 18 16 17 15 14 12 11 12 13 13 12 15 15 26 38 40 42 45 58 68 69 68 81 100 98 95 90 86 87 86 84 86 87 88 86 80 77 74 71 70 69 73 72 67 55 57
17 17 21 18 17 17 15 13 13 13 13 13 13 12 14 19 25 31 26 26 27 33 39 46 69 81 82 76 99 98 92 91 90 90 91 93 95 91 83 84 79 74 72 72 76 72 70 60 59
18 12 17 19 19 16 16 14 14 15 13 14 15 17 24 25 24 25 26 24 27 27 30 33 40 59 79 78 82 96 99 98 95 90 93 91 65 69 72 81 84 81 80 77 76 76 73 58 46
15 14 14 16 14 15 16 16 16 15 15 14 17 22 24 24 24 25 26 26 28 30 32 33 36 38 53 78 83 86 87 70 68 64 62 64 61 62 71 84 89 86 85 83 78 78 74 58 28
22 13 14 17 16 17 19 19 17 16 17 16 17 20 26 26 26 27 28 31 33 33 33 38 42 44 42 59 73 80 89 90 68 66 63 67 88 86 88 87 83 82 88 78 76 72 56 56 39
19 22 19 24 24 22 21 19 19 19 19 24 25 27 28 28 30 32 33 34 37 38 41 45 47 51 51 43 71 81 87 87 85 72 74 69 79 92 93 88 90 94 88 85 83 79 71 58 48
24 24 24 24 25 24 24 22 19 19 25 27 29 30 30 30 33 35 36 37 42 45 48 51 56 61 58 53 72 85 88 89 90 85 88 90 88 88 84 88 89 87 83 75 84 82 80 70 55
22 24 21 21 21 22 24 20 22 21 26 28 28 29 30 34 35 34 37 39 44 50 53 58 66 73 54 53 82 91 92 92 92 93 92 94 91 92 91 92 88 89 88 86 85 87 83 78 69
24 21 19 18 20 20 22 24 22 21 26 28 30 31 34 35 33 37 40 42 46 49 56 65 70 84 78 87 94 93 90 88 92 91 86 90 92 92 94 96 97 97 95 94 90 85 77 72 59
23 23 25 21 23 24 23 20 20 22 24 26 30 30 33 36 36 38 40 42 44 49 58 67 74 77 76 76 79 76 76 75 78 81 77 79 82 83 89 93 96 94 93 95 93 89 87 81 67
26 24 27 24 22 23 24 22 22 21 21 25 27 30 32 33 34 37 39 41 45 48 55 65 71 72 73 71 66 65 62 62 61 59 60 68 70 72 81 86 89 89 90 91 91 84 86 87 78
28 28 28 26 22 25 24 22 21 22 22 23 27 32 32 34 38 39 39 43 46 49 52 60 64 66 65 66 62 58 56 51 50 53 55 55 60 63 65 71 70 69 69 69 72 72 70 58 54
26 26 26 23 24 26 24 24 19 20 23 26 30 32 33 36 38 37 40 42 46 49 51 54 58 59 58 59 60 56 50 46 46 46 48 46 48 50 50 51 53 54 59 60 56 58 58 54 51
28 28 27 26 26 27 24 25 20 22 24 25 28 33 34 36 36 38 38 40 44 47 49 50 51 52 49 48 47 43 39 35 34 37 35 34 40 42 42 47 48 49 50 53 58 60 58 58 52
30 30 27 27 31 31 32 29 28 29 40 42 36 34 34 34 34 36 38 38 40 45 47 47 47 48 44 41 38 36 33 33 32 31 31 30 29 33 39 34 36 37 38 41 47 49 57 56 56
32 28 29 32 32 37 35 36 33 29 36 45 46 40 36 37 36 36 36 35 39 40 42 43 44 42 40 38 36 35 34 34 30 28 30 31 31 32 33 33 33 35 32 33 34 30 34 38 42
35 35 33 35 38 42 38 40 32 37 33 41 44 41 38 37 36 36 36 37 34 38 40 38 37 36 34 31 30 29 30 30 28 28 28 28 31 34 35 34 33 34 32 36 35 34 33 31 30
43 41 41 42 44 55 44 40 32 28 28 36 42 42 40 39 38 36 36 35 33 36 37 36 32 31 30 29 27 28 30 28 29 28 28 29 29 32 35 36 37 35 34 36 36 38 39 35 31
37 39 52 59 61 58 46 47 30 27 34 36 43 43 42 41 38 36 35 32 30 32 33 31 27 28 26 26 26 26 26 26 27 26 28 30 32 32 35 33 34 36 36 35 36 40 41 39 37
40 37 51 77 65 48 61 52 35 44 48 50 46 42 43 43 40 38 32 31 30 32 29 27 26 27 25 26 29 29 27 24 27 29 30 31 32 35 35 34 34 34 35 33 33 38 42 44 42
43 47 41 61 86 69 41 41 36 53 50 52 52 50 47 45 44 39 33 29 28 30 30 28 27 28 28 29 29 31 29 29 30 32 32 33 35 34 36 35 34 33 35 36 34 40 44 44 44
39 38 54 51 84 79 44 45 34 50 44 52 58 55 49 46 44 39 33 30 29 29 30 28 27 28 31 32 30 30 31 32 32 32 34 35 37 36 34 33 33 33 34 34 36 40 42 41 42
48 44 48 43 51 67 57 38 34 35 37 44 44 50 48 46 44 40 35 32 31 32 34 31 31 31 35 35 33 37 36 33 33 33 35 35 36 34 35 35 35 35 35 37 37 40 41 46 48
39 40 43 52 71 58 65 46 43 41 36 41 40 48 46 44 42 40 37 38 35 34 35 34 32 33 33 34 35 36 34 35 34 34 35 38 36 37 37 35 35 35 36 38 39 41 46 47 45
Wind_Speed
4 4 2 3 3 2 5 5 2 2 1 3 2 3 9 6 6 6 3 5 2 8 12 11 9 10 11 11 9 9 9 10 10 10 9 9 8 7 7 10 10 11 13 15 14 13 13 13 12
3 3 2 0 2 6 6 2 3 3 3 0 1 1 3 7 3 4 2 1 3 7 12 13 10 10 9 11 10 9 9 9 9 9 8 8 8 8 10 9 9 11 12 14 13 13 12 12 11
2 3 2 1 1 5 5 4 3 3 1 1 2 1 2 4 5 4 5 2 2 7 10 10 9 9 10 10 10 9 9 9 9 9 8 7 7 7 7 7 9 10 12 13 13 12 13 12 11
2 3 3 1 8 3 3 4 2 4 3 1 1 5 4 6 3 5 4 4 2 6 8 9 8 8 9 10 10 8 8 8 8 8 8 8 8 8 7 7 7 12 13 14 11 11 11 11 11
1 1 2 4 4 3 1 1 1 3 2 3 1 4 4 6 6 7 6 4 3 3 5 8 8 7 8 8 10 12 9 8 7 6 6 8 8 7 7 7 6 5 13 11 9 9 10 11 11
1 2 4 6 5 3 2 1 2 2 2 3 0 3 5 7 8 7 6 7 6 5 2 3 5 4 7 8 8 10 12 10 9 8 6 5 8 7 6 5 6 10 10 9 9 9 9 9 10
2 1 3 5 8 6 4 1 3 3 3 4 1 3 6 9 10 5 8 9 10 9 6 3 3 6 5 4 6 7 9 10 8 7 6 6 7 7 6 4 6 8 9 9 10 9 9 10 10
2 2 6 3 8 5 4 3 1 1 3 2 3 4 5 8 10 2 6 8 9 8 7 6 5 4 5 7 6 6 6 6 6 5 5 7 6 6 6 5 6 7 9 9 10 9 8 8 9
1 3 5 7 7 5 3 5 2 1 3 2 3 4 5 8 5 3 2 6 5 6 7 6 5 2 4 5 4 5 5 4 6 8 8 7 7 8 9 7 7 6 8 10 10 9 7 5 5
2 2 4 3 3 6 5 1 1 4 2 4 5 7 5 6 8 7 8 7 8 9 9 8 8 7 5 4 6 6 4 7 7 8 9 7 5 3 3 5 8 7 6 8 10 10 9 2 2
1 0 4 4 3 2 3 2 2 2 3 2 2 5 5 6 7 7 6 6 7 8 6 7 7 6 6 5 4 2 1 2 5 7 5 5 4 3 3 4 3 3 5 3 5 3 1 4 2
2 2 2 4 4 4 3 2 3 6 2 5 6 6 4 6 6 7 7 7 8 8 9 8 7 5 4 4 4 3 1 1 1 2 4 1 3 3 3 4 4 3 3 3 1 0 1 2 3
3 3 3 3 4 4 2 7 4 6 8 7 8 6 6 5 5 5 6 6 8 8 9 9 8 6 2 3 4 3 3 3 5 7 8 5 3 1 2 2 3 3 3 3 2 2 2 4 5
2 2 4 5 4 5 6 3 6 4 10 8 5 6 7 7 7 4 7 8 10 10 12 11 10 7 1 7 7 5 6 7 7 7 6 6 3 3 3 1 0 1 2 4 3 2 1 2 2
1 4 6 6 4 4 7 5 10 8 11 9 6 5 4 4 5 7 7 7 9 9 11 12 12 12 8 9 9 8 8 9 8 7 10 9 7 7 7 6 5 4 4 4 3 3 2 1 1
2 2 4 4 4 3 8 3 6 13 12 9 7 5 4 5 5 5 6 6 7 7 8 8 8 12 14 14 10 9 10 9 9 8 8 13 12 11 9 7 6 5 5 3 3 3 2 2 3
2 6 7 4 1 2 8 1 7 11 9 7 7 5 3 4 6 8 8 7 6 6 7 8 10 11 12 13 11 11 12 10 8 9 9 12 12 12 9 7 7 6 6 6 4 4 3 2 3
6 6 5 6 2 3 6 12 5 10 10 9 5 3 3 4 7 6 7 6 6 6 7 7 7 9 11 10 10 9 8 10 9 9 9 11 9 11 9 7 8 7 6 6 5 6 5 5 6
1 4 11 2 2 4 10 12 10 12 10 10 8 7 7 5 4 4 4 4 4 7 8 8 8 7 5 5 7 8 10 9 9 9 12 12 11 11 10 8 8 9 9 9 9 5 7 6 9
5 9 14 6 3 4 9 14 16 10 11 11 9 9 9 8 5 5 6 7 8 9 10 9 9 8 6 5 7 6 8 9 9 9 12 13 14 13 11 11 10 11 9 11 11 10 5 6 9
11 14 12 9 1 5 5 16 18 6 4 5 8 10 11 11 10 7 6 6 6 8 8 10 10 10 10 10 9 9 9 8 9 9 9 12 14 14 14 14 12 12 10 10 11 11 12 7 6
14 12 10 8 4 9 3 7 6 7 8 9 11 12 12 12 9 7 7 7 7 7 7 7 7 10 8 7 7 10 9 9 8 8 9 10 13 13 13 13 12 12 9 10 10 9 10 9 9
5 5 9 6 9 5 9 7 6 4 10 12 13 14 14 12 11 9 7 6 5 6 7 8 10 9 9 11 12 10 14 9 8 8 11 12 11 12 12 12 11 11 8 10 11 10 10 8 7
12 7 5 3 1 9 15 13 7 7 7 7 13 13 14 14 12 10 8 7 6 6 8 8 11 11 10 10 12 12 13 12 9 8 8 7 7 8 10 10 10 10 9 9 8 8 9 8 7
6 10 4 5 6 7 2 10 9 7 2 2 14 15 15 13 12 12 11 9 8 8 8 8 10 10 10 11 12 11 12 11 11 8 7 7 6 6 8 8 8 7 7 7 7 7 7 7 6
16 12 5 8 7 1 2 8 5 2 4 4 5 15 15 15 13 13 13 11 10 9 9 10 10 11 10 11 12 10 11 7 7 7 6 6 6 6 6 7 7 7 7 7 6 5 5 5 5
8 11 1 4 2 3 7 5 7 4 6 5 9 15 17 17 16 14 13 11 11 11 11 11 11 10 10 10 9 9 9 9 9 9 7 6 6 5 6 6 6 6 6 5 5 4 4 4 4
5 11 5 4 5 7 6 6 8 8 13 9 12 15 16 16 16 15 15 15 13 12 11 11 11 11 11 10 9 8 9 8 9 8 8 7 6 5 5 5 5 6 6 6 6 4 4 6 5
7 8 4 3 5 4 4 5 4 12 13 15 13 15 17 19 18 16 14 13 13 12 12 11 11 12 11 11 10 10 9 9 8 7 7 7 6 5 5 5 4 4 5 5 5 5 5 6 7
10 11 12 8 7 5 2 6 2 2 6 9 10 13 15 17 17 16 15 14 14 14 13 13 13 13 12 11 11 11 10 9 8 7 7 6 6 4 3 3 3 3 4 5 5 5 5 7 8
Wind_Direction
299 316 258 224 210 120 97 93 349 133 138 46 356 340 63 43 23 59 83 173 106 163 167 176 159 141 142 143 132 132 126 126 122 116 111 103 93 82 94 95 85 88 84 74 55 51 45 39 33
324 260 217 180 188 139 106 95 121 72 51 43 146 166 106 74 46 86 125 111 345 171 169 175 163 158 151 140 142 140 137 131 127 121 116 111 103 96 106 93 89 87 85 77 53 42 41 38 35
256 319 261 60 99 113 124 166 132 103 35 239 143 11 29 57 62 44 20 169 41 156 177 171 167 166 156 149 152 152 148 145 140 136 132 123 118 108 102 102 116 87 66 57 62 35 32 30 33
264 177 128 214 111 95 101 140 140 157 144 112 348 105 112 28 20 15 50 103 115 155 182 149 179 171 167 162 165 161 158 153 150 150 147 139 131 125 124 130 125 109 82 63 55 37 31 29 31
41 232 117 119 110 111 212 95 210 160 95 82 303 96 77 54 43 45 51 41 42 132 164 181 187 189 181 191 187 162 170 169 166 164 163 158 136 129 123 111 93 48 90 89 68 46 35 31 34
133 298 178 168 142 152 218 131 226 152 116 108 119 121 76 55 43 33 45 51 46 73 94 183 195 230 212 193 210 185 174 179 185 176 183 172 147 135 120 102 67 67 86 90 79 62 43 41 44
99 188 120 149 151 169 172 125 225 125 139 96 51 158 117 68 20 31 63 60 54 42 42 27 258 217 268 256 222 231 191 190 203 192 171 177 164 146 128 101 90 81 82 82 83 66 45 35 36
93 105 144 173 180 166 155 170 272 322 104 77 319 171 155 15 349 17 76 63 59 50 41 25 7 345 252 240 224 279 230 193 189 199 189 183 173 153 132 128 94 99 103 97 102 86 73 56 42
254 176 166 170 178 147 143 184 152 353 276 58 39 40 17 350 358 74 77 53 42 38 28 14 1 346 338 259 266 255 252 297 211 208 205 191 210 190 173 128 115 106 112 117 115 106 92 86 82
274 228 160 160 155 158 149 211 171 214 185 156 134 101 55 40 41 49 37 17 12 8 2 359 346 333 286 237 217 212 225 227 234 219 215 214 202 168 136 129 121 122 129 142 137 134 126 149 31
90 66 142 173 170 164 149 216 167 235 232 134 149 127 55 42 48 44 36 20 354 345 351 353 343 331 311 263 243 223 220 237 238 241 242 205 121 128 135 139 152 152 159 161 143 148 333 79 31
200 138 170 143 175 166 199 141 218 221 78 100 100 95 77 50 42 25 10 3 355 346 348 345 344 331 319 288 219 191 204 191 251 12 44 43 145 158 160 171 164 160 172 157 167 348 8 102 99
212 164 198 187 194 232 185 225 256 215 137 119 108 105 87 68 40 24 3 2 350 351 349 351 337 334 318 234 179 140 109 56 46 50 40 25 25 36 195 170 170 188 158 187 162 85 62 1 4
103 219 256 247 227 202 214 235 185 157 155 140 136 84 59 43 24 19 17 6 2 353 357 352 354 337 158 153 131 104 78 71 65 57 52 45 49 49 55 88 145 67 52 48 56 79 79 62 11
30 288 291 223 203 213 188 223 225 143 162 142 126 111 83 50 34 26 11 6 1 1 2 6 358 1 42 63 62 65 77 72 54 44 43 44 47 71 76 52 37 32 50 65 77 70 55 109 49
239 249 253 122 166 127 208 241 149 155 166 159 156 158 143 69 38 29 17 12 11 12 27 28 31 54 53 54 49 53 52 55 53 43 42 45 50 51 55 60 48 48 51 70 67 60 66 354 351
209 260 229 285 181 140 223 285 129 171 191 172 181 168 117 84 42 25 17 14 15 25 34 40 50 64 77 71 64 57 59 61 59 57 49 46 49 54 59 48 56 40 50 42 33 43 52 33 354
202 221 229 243 136 222 240 252 168 185 201 206 188 159 128 83 40 24 24 21 34 46 65 65 78 91 100 107 108 89 67 61 53 54 52 56 57 60 69 63 59 58 61 54 59 61 60 29 351
206 236 259 200 116 240 246 265 254 200 218 214 201 179 152 106 68 56 60 57 72 58 72 65 70 53 78 60 79 73 80 79 68 57 52 55 54 57 62 69 58 57 51 46 34 36 41 34 357
227 251 259 272 217 238 264 260 264 220 228 232 212 182 160 142 128 84 59 57 58 64 60 57 57 61 70 86 92 86 98 83 83 73 60 56 57 51 55 56 51 47 54 43 37 34 37 34 22
226 233 242 263 187 217 269 262 250 217 178 169 177 168 165 160 145 137 115 101 103 101 110 112 105 97 92 93 96 98 97 91 79 67 65 57 57 57 57 57 58 53 50 49 40 32 30 31 38
240 221 232 231 243 263 239 282 236 208 200 196 184 182 168 161 147 140 132 105 83 77 91 92 94 102 98 107 107 110 102 95 88 85 82 70 61 61 60 59 59 60 56 56 47 41 43 34 32
268 144 203 212 234 266 213 257 245 172 230 205 191 181 171 165 156 147 138 121 107 109 97 94 97 95 100 108 112 113 113 112 108 100 93 83 72 63 60 60 58 58 55 52 49 44 42 46 43
136 101 82 84 205 251 231 222 193 212 220 174 181 183 174 167 160 155 154 153 140 129 114 111 110 103 105 109 107 111 116 124 122 115 102 89 78 71 64 66 62 57 54 45 43 48 45 36 39
185 166 180 214 208 252 61 216 261 243 172 105 178 178 178 174 170 169 173 169 154 139 121 114 114 105 106 108 109 116 115 118 119 117 109 113 101 84 70 70 67 60 56 51 42 42 43 28 27
190 198 207 213 203 210 106 231 242 329 109 121 146 173 174 179 181 183 180 171 161 151 141 135 127 121 128 121 119 119 119 120 112 117 120 110 102 95 86 77 68 59 48 43 37 35 31 13 19
176 213 137 111 81 261 205 226 233 181 193 167 160 175 183 185 188 188 180 179 170 169 162 157 144 143 143 132 128 129 128 130 124 123 115 110 110 107 97 81 74 64 56 41 23 29 22 2 356
212 144 171 214 217 229 202 241 225 205 207 181 184 191 189 190 193 192 186 184 181 177 172 166 159 163 153 148 146 142 138 137 138 138 126 119 116 116 104 85 65 47 33 20 6 9 6 349 348
171 189 205 222 225 240 259 223 215 204 185 189 195 194 192 193 195 193 192 188 185 181 179 174 176 171 170 167 159 151 155 159 146 138 141 131 125 111 83 63 53 40 20 10 352 350 341 335 329
237 215 184 199 187 241 315 242 176 123 167 187 182 189 197 198 194 193 194 187 186 189 185 186 186 182 183 172 169 169 164 162 158 152 138 131 121 114 102 85 58 26 359 348 334 328 322 320 317